RH
60 57 71 63 61 60 60 60 60 59 61 62 62 66 69 72 72 45 22 30 57 87 90 72 84 94 78 92 91 82 40 44 72 69 70 50 51 48 74 63 72 48 38
59 59 68 64 63 61 60 60 57 59 49 52 59 60 59 65 72 31 29 54 83 85 94 77 45 88 88 68 72 40 32 35 48 59 60 49 52 74 78 83 69 66 63
62 57 59 71 76 72 61 57 60 61 52 53 55 60 61 71 55 25 50 77 84 84 83 45 25 64 30 30 29 28 30 37 43 49 54 72 79 70 81 85 82 83 83
56 51 45 57 76 75 70 59 64 69 63 57 54 63 65 75 47 34 82 83 85 80 69 22 25 27 30 35 38 37 33 30 30 36 43 49 71 58 63 62 62 71 63
59 48 41 44 52 74 70 64 62 65 67 62 56 72 67 73 50 51 85 84 82 69 68 23 25 28 39 42 46 46 44 39 32 30 33 33 35 34 34 37 39 36 34
65 50 43 40 42 45 65 69 64 62 74 70 63 75 75 71 67 75 86 84 78 64 29 26 27 31 41 43 46 46 42 39 35 34 34 33 33 33 33 33 33 33 34
72 61 51 44 42 41 44 56 56 58 59 66 70 71 75 73 72 74 81 83 70 61 27 27 29 33 39 41 42 45 45 40 37 38 38 37 36 36 36 37 38 40 42
77 71 59 50 49 48 47 48 48 50 56 58 67 74 71 78 74 75 76 69 57 55 30 29 33 36 38 40 42 44 46 43 39 42 42 40 40 40 41 42 45 47 49
84 80 70 61 59 58 56 54 52 49 50 64 60 68 71 85 77 70 58 59 54 47 31 32 35 35 37 39 40 42 46 48 46 43 43 44 44 44 45 46 48 52 53
81 86 84 75 71 69 66 60 52 48 42 57 58 63 75 89 83 67 54 68 44 39 30 34 35 35 37 40 39 42 46 45 50 47 45 46 45 45 46 47 51 54 56
78 91 88 88 86 83 74 64 54 43 39 57 63 66 78 91 87 59 60 71 42 32 32 35 36 40 40 42 43 42 44 44 49 52 52 49 48 46 46 48 54 58 60
74 82 82 90 87 92 81 66 56 43 51 69 77 72 80 94 88 66 80 58 47 36 34 36 41 42 40 39 40 42 42 45 49 50 52 52 51 51 50 50 55 62 64
76 76 76 69 80 86 86 70 61 59 64 58 80 75 80 90 89 90 93 72 84 38 35 39 42 41 40 40 39 41 44 44 46 52 56 59 57 54 54 54 61 65 64
46 65 77 77 72 72 84 79 61 52 78 66 82 81 83 87 94 90 93 66 76 40 34 38 40 41 40 39 38 40 44 50 50 56 63 64 66 68 61 64 67 70 68
32 44 71 75 74 71 72 80 69 52 62 78 73 82 90 89 96 85 89 69 77 64 39 40 40 39 38 40 42 41 46 53 49 58 70 73 74 72 70 71 66 69 62
26 32 50 70 80 74 73 82 76 64 51 72 81 77 91 92 93 93 79 74 51 50 49 47 39 36 37 42 46 45 49 62 66 74 77 76 78 76 76 78 68 72 76
26 34 52 56 76 76 74 76 82 73 62 64 59 74 91 94 94 94 89 73 67 46 56 55 48 40 40 46 44 44 52 61 77 79 80 76 76 77 76 78 76 76 79
27 35 60 66 70 77 78 82 80 80 76 66 60 66 73 94 99 100 99 81 83 57 60 55 48 40 46 54 48 49 55 62 70 79 79 77 76 75 75 76 72 74 79
28 28 52 68 72 73 78 86 86 87 83 73 76 73 69 68 91 99 100 94 99 83 58 55 47 46 50 52 52 53 64 65 68 67 72 78 76 74 74 72 72 73 77
30 28 42 50 63 71 69 68 66 75 88 89 85 74 79 76 64 89 91 81 81 93 65 62 51 57 52 55 60 60 67 69 66 65 68 73 71 71 70 73 75 72 76
31 45 40 51 55 68 69 70 68 67 63 61 53 56 78 72 64 77 75 72 77 78 58 54 55 67 59 67 71 69 67 66 63 67 70 73 75 74 73 71 72 73 73
35 52 45 52 52 52 51 52 60 62 67 65 59 63 84 74 70 67 68 68 67 53 72 56 71 65 65 71 72 79 78 73 67 64 70 75 76 77 76 73 76 78 69
54 54 49 55 55 53 52 61 79 89 93 85 75 63 80 90 78 72 62 71 75 69 66 83 72 60 71 74 76 79 81 77 68 62 65 63 69 78 78 79 82 76 55
60 54 49 62 65 62 56 64 76 86 97 91 87 89 98 100 89 77 88 83 78 56 77 70 78 78 76 74 79 78 76 73 69 73 66 62 75 83 86 85 86 82 71
60 61 73 72 63 55 58 60 77 97 98 100 100 100 100 100 91 82 61 69 66 77 67 68 72 64 69 78 77 70 69 64 66 83 77 75 77 84 90 89 85 84 84
57 60 68 79 72 59 60 64 97 98 99 98 100 99 98 97 97 93 86 80 77 78 76 73 68 73 80 76 80 75 71 74 74 80 78 80 86 83 90 90 92 95 81
Wind_Speed
23 23 29 29 28 27 27 26 25 23 21 20 18 17 15 13 11 10 13 17 19 16 13 11 15 16 18 16 14 12 13 15 16 14 12 12 13 16 14 15 15 16 16
21 25 30 29 27 27 27 26 24 22 20 19 19 17 16 14 13 13 17 19 16 16 13 12 14 15 16 15 16 13 14 15 14 14 14 16 17 15 16 16 17 17 17
16 24 29 28 25 26 26 25 24 22 20 18 18 17 17 16 14 17 20 19 18 17 14 12 14 15 17 17 15 15 15 15 14 13 14 17 14 12 15 15 14 15 16
15 25 29 29 26 24 24 24 24 23 20 18 18 17 18 17 17 20 18 19 19 16 13 13 16 17 16 15 14 13 14 13 11 12 11 12 13 11 11 10 12 12 10
18 24 27 29 27 25 22 23 22 22 20 18 18 17 18 18 19 21 19 19 18 15 13 16 16 16 15 13 12 13 12 11 11 10 9 9 8 10 11 10 9 9 9
18 22 24 26 27 25 24 22 21 20 19 18 18 18 19 20 20 19 21 19 16 15 17 17 16 16 14 11 11 11 10 10 10 9 8 8 9 9 9 9 9 9 9
19 21 24 26 26 25 23 22 20 20 19 19 18 18 19 20 21 21 21 19 17 16 18 18 17 16 13 10 9 10 10 10 9 9 8 8 8 8 8 8 8 9 8
17 21 25 26 25 24 23 21 20 20 20 20 20 19 19 21 22 21 20 18 19 19 19 18 17 16 14 11 9 9 9 9 9 8 7 7 7 7 7 7 7 7 7
18 20 25 27 26 24 23 22 20 20 21 21 22 21 21 22 22 21 20 19 19 22 21 19 18 16 14 11 9 9 8 8 8 8 6 6 5 5 5 5 4 5 5
21 23 24 27 27 26 24 22 20 21 22 23 24 23 22 22 23 22 20 19 20 22 22 20 18 16 13 11 8 7 7 7 7 6 5 4 4 3 2 2 2 3 4
18 23 23 26 28 26 24 22 20 20 22 24 25 24 23 24 24 23 22 21 22 25 23 20 18 16 14 12 10 8 6 5 5 5 4 3 2 2 1 0 1 2 2
20 23 23 23 24 25 25 24 22 21 23 26 26 26 25 25 24 25 24 23 26 26 24 21 19 16 14 13 12 10 7 6 5 4 3 2 2 2 2 1 2 3 4
19 24 25 22 23 26 26 25 23 22 23 27 27 27 26 25 26 29 26 27 28 30 28 23 20 18 16 14 13 12 10 7 6 5 3 2 1 3 3 3 3 4 5
15 16 27 26 23 25 26 26 24 22 24 27 28 28 30 30 31 32 30 29 31 30 28 25 21 18 16 15 14 13 12 10 8 7 4 3 2 3 3 4 5 6 6
19 15 21 29 29 26 27 26 26 24 25 26 28 29 30 31 33 35 33 29 33 31 29 26 22 20 17 16 14 14 13 11 11 9 7 2 2 4 2 5 6 7 6
22 18 20 23 28 30 28 28 27 26 24 25 28 29 30 32 33 36 35 32 34 31 30 26 23 21 18 16 16 15 14 13 11 10 8 6 4 4 6 8 7 6 8
26 22 19 24 26 29 29 28 27 24 20 22 22 29 32 33 35 39 38 34 35 32 30 27 24 21 20 18 17 17 16 15 15 13 12 10 9 9 9 10 11 8 11
29 25 19 22 26 29 27 29 29 28 24 25 25 28 30 33 38 41 38 31 35 32 31 28 25 24 22 20 17 16 16 15 16 16 15 15 12 13 12 13 12 12 14
26 28 25 21 24 26 28 28 27 26 27 25 27 26 24 25 38 39 38 36 39 32 29 29 26 25 23 22 20 17 16 17 17 18 19 17 16 15 16 17 16 16 16
27 30 30 26 25 27 28 29 30 33 36 34 34 36 36 34 29 31 27 31 36 35 34 31 30 25 24 21 17 17 17 18 19 21 20 21 19 19 19 21 20 18 17
31 31 33 29 25 28 31 31 35 38 39 41 39 39 47 40 41 41 38 31 35 35 32 33 30 27 26 21 20 20 20 19 21 20 21 22 23 22 21 23 21 20 18
33 31 34 32 29 28 28 29 30 32 38 39 41 40 42 42 40 38 40 39 37 37 38 36 33 30 27 24 23 19 16 20 21 22 23 24 25 24 26 25 22 21 19
27 35 36 34 32 30 30 29 27 26 30 35 38 42 47 47 40 39 36 36 33 34 36 38 34 32 30 27 26 18 10 11 13 15 21 25 29 31 28 28 25 22 19
26 33 33 31 29 28 23 22 29 32 32 33 36 38 37 45 44 38 37 32 27 35 40 36 35 33 31 29 28 28 23 18 15 15 19 23 30 34 29 29 27 23 20
24 30 36 34 29 25 28 29 25 29 32 32 30 36 42 44 44 40 36 33 29 37 36 39 37 33 33 31 26 23 21 28 31 31 28 26 23 27 31 28 24 22 20
31 28 34 34 29 25 28 25 27 32 37 29 35 36 30 28 30 31 30 29 29 34 34 35 33 31 26 23 24 28 31 30 31 29 30 31 27 25 29 28 28 20 20
Wind_Direction
192 188 182 181 181 182 181 180 179 178 177 178 177 177 175 170 165 160 147 137 132 125 141 135 119 120 126 119 109 110 116 112 112 108 111 109 108 96 88 91 82 80 85
192 185 181 181 182 182 182 181 181 178 176 176 178 177 174 171 166 158 147 139 136 140 142 132 126 119 131 133 135 119 115 112 111 106 103 102 102 99 89 92 84 81 81
190 184 180 180 181 182 184 183 182 179 176 173 174 174 174 170 165 156 150 144 144 147 144 136 134 134 127 128 125 118 112 110 109 108 105 103 97 109 105 94 91 88 82
193 183 183 182 181 184 185 185 183 183 181 180 180 174 174 170 165 159 151 152 151 155 143 140 139 134 132 130 124 115 109 106 108 107 107 109 111 101 118 109 96 93 101
187 186 187 185 187 183 187 188 187 186 186 184 183 172 174 173 167 164 161 164 167 158 153 148 144 140 138 132 122 118 115 107 103 105 108 106 106 99 96 94 90 85 82
182 189 192 191 190 190 187 188 190 190 189 186 182 179 178 177 174 172 172 171 172 162 156 154 149 147 144 137 126 119 117 110 103 106 107 107 102 98 96 92 85 78 74
183 189 197 196 193 191 191 192 192 195 196 193 189 187 185 181 180 178 181 183 181 173 164 159 155 154 153 148 133 121 118 112 110 109 107 106 106 104 98 90 86 79 70
196 194 199 198 196 194 195 196 199 200 198 200 199 195 191 188 185 185 187 190 187 180 170 164 161 161 160 155 143 134 129 116 114 111 109 109 107 102 95 89 79 72 65
215 204 203 198 199 201 201 200 203 206 205 201 203 203 199 194 193 191 193 192 192 183 174 169 167 168 166 164 155 144 138 129 123 115 115 112 105 101 97 85 75 61 53
223 209 206 201 200 203 205 206 208 210 208 205 205 205 202 201 199 198 195 193 189 178 175 174 173 172 171 172 170 161 152 145 140 132 127 126 117 110 91 77 54 49 37
230 217 211 205 204 206 206 206 209 211 208 204 205 203 201 203 202 200 200 196 190 181 178 177 177 176 177 181 185 184 177 163 162 156 147 145 144 145 139 22 10 1 5
232 225 226 218 221 211 208 207 206 206 203 202 203 201 202 204 202 202 206 192 186 185 183 182 181 181 184 190 194 201 198 191 190 189 182 182 200 218 252 280 299 316 333
241 230 230 224 221 225 217 211 205 204 203 201 203 202 202 204 205 203 209 193 185 191 185 184 186 187 189 195 202 206 214 214 207 205 200 200 241 254 266 272 271 294 317
268 251 227 224 230 226 226 221 214 209 205 205 205 204 204 203 201 206 212 202 195 192 185 187 190 191 195 200 206 212 217 222 220 217 215 221 251 278 278 280 278 283 292
271 262 235 227 219 227 231 225 221 218 212 209 209 208 208 207 208 211 216 214 204 199 190 190 193 197 201 204 211 214 219 225 224 218 221 221 275 274 299 332 298 288 301
262 264 249 237 229 216 225 227 227 223 219 213 209 213 214 212 218 216 220 217 211 202 195 193 198 202 205 210 218 222 222 227 219 215 214 230 258 298 297 318 316 300 311
249 255 253 236 231 230 222 224 225 222 215 224 230 225 217 216 223 223 225 222 216 206 201 196 200 206 210 214 221 223 223 224 226 233 243 239 245 254 260 292 306 292 303
245 246 251 232 230 228 232 223 223 213 223 229 235 230 231 220 224 222 221 223 227 214 205 204 205 208 214 221 224 227 230 230 228 237 237 240 245 251 256 274 287 291 298
237 239 239 232 226 223 227 229 227 234 226 230 234 232 227 232 231 230 215 212 224 222 212 212 212 214 220 225 229 231 234 234 238 244 239 243 245 254 249 258 263 278 293
227 234 233 232 229 226 226 228 230 230 230 236 236 231 242 249 243 235 226 202 227 231 220 215 215 217 224 229 237 238 239 242 246 241 245 246 249 248 253 257 259 274 282
221 226 229 226 226 226 226 228 232 234 236 237 240 243 240 242 246 232 224 212 226 226 227 221 219 219 226 227 233 243 244 243 243 238 234 242 251 258 259 259 250 263 274
233 221 220 221 224 229 234 239 238 242 240 241 240 238 234 237 236 236 226 229 216 219 236 222 219 220 225 228 228 230 242 246 245 240 242 249 250 261 263 258 249 256 268
224 217 218 219 224 230 237 240 244 246 245 242 244 243 233 233 235 223 220 208 216 223 228 225 223 223 224 223 224 220 216 233 253 258 254 261 257 254 259 257 251 250 257
224 214 217 217 223 227 229 238 238 238 236 241 247 243 243 225 228 217 218 211 216 211 226 226 226 224 225 226 224 227 232 255 261 271 272 269 255 254 245 243 244 252 254
225 222 219 217 217 228 230 243 246 233 233 225 220 222 221 213 215 210 211 216 210 220 224 227 228 227 227 229 231 240 246 258 258 258 272 274 271 255 239 238 236 243 260
234 233 220 211 220 229 227 239 224 221 227 223 210 207 199 209 206 210 217 217 216 222 227 230 231 235 231 233 244 249 257 261 267 263 267 270 270 267 245 237 239 240 257